Zurück zum Katalog

GEESAT 2-01

AktivWissenschaftLEO
NORAD 58905·PAYLOAD·🇨🇳 China

Gestartet Feb 2, 2024 von Xichang Satellite Launch Center

Loading…

Nächste Überflüge (nächste 24 Stunden)

TLE

AktuellSource: Space-Track

Epoche: Sep 14, 2026, 14:29 UTC

1 58905U 24023A   26257.60395759  .00000932  00000-0  13961-3 0  9991
2 58905  49.9953 299.8663 0004907   4.2580 355.8399 14.83403288142189

Verfolge GEESAT 2-01 in Echtzeit mit AllMySat

Download on the App Store